User: anonymous   Login
Location: Caltech
(34.1382°N, 118.1253°W)
Time: 23:32:09
(UTC-07:00)
Language:

Cosmos 2219 - Orbit

View from above orbital plane
View from above orbital plane
View from above satellite
View from above satellite

Ground track
Ground track

The orbit data is extracted from the following two-line orbital elements,

1 22219U 92076A   16146.84558353  .00000217  00000-0  13961-3 0  9992
2 22219  71.0613 286.7980 0020032 261.3688  98.5165 14.13595725213470
Epoch (UTC): 25 May 2016 20:17:38
Eccentricity: 0.0020032
inclination: 71.0613°
perigee height: 832 km
apogee height: 861 km
right ascension of ascending node: 286.7980°
argument of perigee: 261.3688°
revolutions per day: 14.13595725
mean anomaly at epoch: 98.5165°
orbit number at epoch: 21347

The dashed part of the orbit path shows where the satellite is in the earth's shadow,  

DLR